This demonstration page uses our WeatherBlox Daily Observations layout. Learn more.

Left ArrowRight Arrow

41.12389, -100.76542

Hourly Observations for March 29, 2021

Temp ( °F °C ) Dew Point ( °F °C ) Humidity (%) Winds ( mph kmh ) Pressure ( in mb ) Visibility ( mi km ) Precip ( " mm )
12:53 am 00:53 Clear 48 8.9 27 -2.8 44 44 Calm 29.83 1010 10 16 0.00 0.00
1:53 am 01:53 Clear 43 6.1 27 -2.8 53 53 NNW 3 6 29.79 1009 10 16 0.00 0.00
2:53 am 02:53 Clear 39 3.9 26 -3.3 60 60 Calm 29.78 1008 10 16 0.00 0.00
3:53 am 03:53 Clear 39 3.9 27 -2.8 62 62 WNW 8 13 29.74 1007 10 16 0.00 0.00
4:53 am 04:53 Clear 34 1.1 26 -3.3 73 73 NW 3 6 29.71 1006 10 16 0.00 0.00
5:53 am 05:53 Clear 32 0 24 -4.4 73 73 W 6 9 29.69 1006 10 16 0.00 0.00
6:53 am 06:53 Clear 31 -0.6 24 -4.4 76 76 Calm 29.67 1005 10 16 0.00 0.00
7:53 am 07:53 Sunny 31 -0.6 24 -4.4 76 76 Calm 29.67 1005 10 16 0.00 0.00
8:53 am 08:53 Sunny 43 6.1 30 -1.1 60 60 S 3 6 29.63 1003 10 16 0.00 0.00
9:53 am 09:53 Sunny 52 11.1 30 -1.1 43 43 Calm 29.60 1002 10 16 0.00 0.00
10:53 am 10:53 Sunny 61 16.1 31 -0.6 32 32 SE 5 7 29.54 1000 10 16 0.00 0.00
11:53 am 11:53 Sunny 74 23.3 32 0 21 21 SSE 9 15 29.50 999 10 16 0.00 0.00
12:53 pm 12:53 Sunny 78 25.6 26 -3.3 15 15 W 13 20 29.46 998 10 16 0.00 0.00
1:05 pm 13:05 Sunny 79 26.1 25 -3.9 14 14 W 13 20 29.34 994 10 16 0.00 0.00
1:53 pm 13:53 Sunny 81 27.2 22 -5.6 11 11 SW 18 30 29.44 997 10 16 0.00 0.00
2:53 pm 14:53 Sunny 82 27.8 24 -4.4 12 12 SW 15 24 29.40 996 10 16 0.00 0.00
3:53 pm 15:53 Sunny 82 27.8 22 -5.6 11 11 SW 7 11 29.37 995 10 16 0.00 0.00
4:43 pm 16:43 Sunny 81 27.2 24 -4.4 12 12 W 15 24 29.23 990 10 16 0.00 0.00
4:53 pm 16:53 Sunny 80 26.7 24 -4.4 13 13 W 16 26 29.36 994 10 16 0.00 0.00
5:53 pm 17:53 Sunny 81 27.2 23 -5 12 12 NW 13 20 29.36 994 10 16 0.00 0.00
6:53 pm 18:53 Sunny 78 25.6 31 -0.6 18 18 NW 6 9 29.36 994 10 16 0.00 0.00
7:53 pm 19:53 Sunny 57 13.9 29 -1.7 34 34 N 35 56 29.55 1001 10 16 0.00 0.00
8:53 pm 20:53 Clear 51 10.6 25 -3.9 36 36 N 25 41 29.63 1003 10 16 0.00 0.00
9:53 pm 21:53 Clear 47 8.3 25 -3.9 42 42 N 18 30 29.67 1005 10 16 0.00 0.00
10:53 pm 22:53 Clear 45 7.2 20 -6.7 37 37 N 15 24 29.69 1005 10 16 0.00 0.00
11:53 pm 23:53 Clear 45 7.2 17 -8.3 33 33 N 20 31 29.67 1005 10 16 0.00 0.00

Powered by AerisWeather